Погода в Хокитике

Новая Зеландия     42°42′58″S   170°57′59″E
темп.,
°C
ветер,
м/с
пор.,
м/с
влажн.,
%
обл.,
%
осадки,
мм/ч
давл.,
гПа
погр.,
м
8 мая, сб
сб800:00+12вюв2267100 0.0 103247
03:00+12вюв2365100 0.0 103161
06:00+13в2267100 0.0 103057
09:00+14вюв2368100 0.0 103069
12:00+17ссв1562100 0.1 1028739
15:00+13юв2389100 1.9 1026118
18:00+13в3695100 7.3 1024252
21:00+14ссв61396100 5.8 1022718
9 мая, вс
вс900:00+15с81597100 13.9 10211001
03:00+15с61398100 7.4 1019828
06:00+16с51199100 15.0 1018620
09:00+16с41098100 7.6 1018459
12:00+16с61297100 11.6 1017692
15:00+16с51198100 8.2 1016673
18:00+16ссв379875 11.8 1017265
21:00+16с4899100 5.8 1018390
10 мая, пн
пн1000:00+15с2499100 12.2 1019216
03:00+15зсз2497100 2.8 1020188
06:00+15сз119668 3.4 102045
09:00+15с119378 0.9 102256
12:00+16с1287100 1.9 1022304
15:00+16с1186100 0.2 1020288
18:00+14всв1194100 0.3 102043
21:00+14вюв2294100 0.0 101957
11 мая, вт
вт1100:00+14в3597100 7.2 1015252
03:00+16с91798100 18.8 10121096
06:00+17ссз111792100 28.9 10101042
09:00+16ссз71394100 2.6 1011887
12:00+16ссз51195100 5.6 1010598
15:00+15зсз3695100 6.3 1009270
18:00+14с1196100 10.6 101029
21:00+13юз029482 1.1 1011104
12 мая, ср
ср1200:00+12зюз4695100 2.7 1012339
03:00+11юз4594100 8.1 1012279
06:00+9ююв3593100 14.1 1014291
09:00+8вюв3689100 3.4 1016310
12:00+8ююз2683100 4.8 1017536
15:00+9ю477399 0.3 1017524
18:00+6ююв4873100 0.3 1018285
21:00+7юв487094 0.0 1021285